Hourly Weather Kleciska

Today, 21 April, Wednesday

Time Temperature Precipitation Wind Pressure Humidity
00:00 +7°C° 0 mm 2 mps 743 mmHg 76%
01:00 +5°C° 0 mm 3 mps 743 mmHg 77%
02:00 +5°C° 0 mm 3 mps 743 mmHg 78%
03:00 +6°C° 0 mm 2 mps 742 mmHg 79%
04:00 +6°C° 0 mm 2 mps 742 mmHg 79%
05:00 +7°C° 0 mm 3 mps 742 mmHg 78%
06:00 +8°C° 0 mm 3 mps 742 mmHg 76%
07:00 +9°C° 0 mm 3 mps 742 mmHg 74%
08:00 +11°C° 0.2 mm 4 mps 742 mmHg 68%
09:00 +12°C° 0.2 mm 4 mps 742 mmHg 62%
10:00 +14°C° 0.2 mm 4 mps 742 mmHg 56%
11:00 +14°C° 0.5 mm 5 mps 742 mmHg 54%
12:00 +15°C° 0.5 mm 5 mps 742 mmHg 53%
13:00 +15°C° 0.5 mm 5 mps 742 mmHg 52%
14:00 +15°C° 0.1 mm 5 mps 741 mmHg 51%
15:00 +15°C° 0.1 mm 5 mps 741 mmHg 51%
16:00 +15°C° 0.1 mm 5 mps 741 mmHg 51%
17:00 +13°C° 0 mm 4 mps 741 mmHg 57%
18:00 +12°C° 0 mm 3 mps 742 mmHg 64%
19:00 +12°C° 0 mm 2 mps 742 mmHg 70%
20:00 +10°C° 0 mm 2 mps 742 mmHg 71%
21:00 +9°C° 0 mm 3 mps 742 mmHg 71%
22:00 +9°C° 0 mm 3 mps 742 mmHg 72%
23:00 +8°C° 0 mm 3 mps 742 mmHg 73%

Tomorrow, 22 April, Thursday

Time Temperature Precipitation Wind Pressure Humidity
00:00 +8°C° 0 mm 3 mps 742 mmHg 73%
01:00 +7°C° 0 mm 3 mps 742 mmHg 74%
02:00 +7°C° 0 mm 3 mps 742 mmHg 77%
03:00 +5°C° 0 mm 3 mps 742 mmHg 81%
04:00 +5°C° 0 mm 3 mps 742 mmHg 84%
05:00 +5°C° 0 mm 4 mps 743 mmHg 84%
06:00 +6°C° 0 mm 4 mps 743 mmHg 84%
07:00 +6°C° 0 mm 4 mps 743 mmHg 83%
08:00 +6°C° 0.1 mm 5 mps 744 mmHg 78%
09:00 +5°C° 0.1 mm 5 mps 744 mmHg 73%
10:00 +4°C° 0.1 mm 6 mps 745 mmHg 68%
11:00 +5°C° 0 mm 6 mps 745 mmHg 59%
12:00 +7°C° 0 mm 6 mps 744 mmHg 50%
13:00 +8°C° 0 mm 7 mps 744 mmHg 41%
14:00 +8°C° 0 mm 7 mps 744 mmHg 42%
15:00 +8°C° 0 mm 7 mps 745 mmHg 43%
16:00 +8°C° 0 mm 7 mps 745 mmHg 44%
17:00 +7°C° 0 mm 6 mps 745 mmHg 50%
18:00 +5°C° 0 mm 5 mps 745 mmHg 56%
19:00 +4°C° 0 mm 4 mps 745 mmHg 62%
20:00 +3°C° 0 mm 3 mps 746 mmHg 70%
21:00 +2°C° 0 mm 3 mps 746 mmHg 79%
22:00 +2°C° 0 mm 3 mps 746 mmHg 88%
23:00 +1°C° 0 mm 3 mps 746 mmHg 86%

Day after tomorrow, 23 April, Friday

Time Temperature Precipitation Wind Pressure Humidity
00:00 0°C° 0 mm 4 mps 746 mmHg 84%
01:00 0°C° 0 mm 4 mps 746 mmHg 82%
02:00 0°C° 0 mm 5 mps 746 mmHg 79%
03:00 0°C° 0 mm 5 mps 746 mmHg 76%
04:00 -1°C° 0 mm 5 mps 746 mmHg 73%
05:00 0°C° 0 mm 5 mps 747 mmHg 69%
06:00 +1°C° 0 mm 5 mps 747 mmHg 65%
07:00 +2°C° 0 mm 5 mps 747 mmHg 62%
08:00 +3°C° 0.1 mm 5 mps 747 mmHg 56%
09:00 +5°C° 0.1 mm 6 mps 747 mmHg 50%
10:00 +7°C° 0.1 mm 6 mps 747 mmHg 44%
11:00 +7°C° 0 mm 6 mps 747 mmHg 44%
12:00 +8°C° 0 mm 6 mps 747 mmHg 45%
13:00 +8°C° 0 mm 6 mps 746 mmHg 45%
14:00 +6°C° 0.6 mm 7 mps 747 mmHg 55%
15:00 +5°C° 0.6 mm 7 mps 747 mmHg 65%
16:00 +3°C° 0.6 mm 7 mps 747 mmHg 75%
17:00 +2°C° 0.1 mm 6 mps 747 mmHg 77%
18:00 +1°C° 0.1 mm 5 mps 748 mmHg 79%
19:00 +1°C° 0.1 mm 3 mps 748 mmHg 81%
20:00 0°C° 0 mm 4 mps 748 mmHg 81%
21:00 0°C° 0 mm 4 mps 748 mmHg 80%
22:00 0°C° 0 mm 5 mps 749 mmHg 80%
23:00 -1°C° 0 mm 4 mps 749 mmHg 83%

24 April, Saturday

Time Temperature Precipitation Wind Pressure Humidity
00:00 -1°C° 0 mm 4 mps 749 mmHg 86%
01:00 -2°C° 0 mm 4 mps 749 mmHg 89%
02:00 -2°C° 0 mm 4 mps 749 mmHg 89%
03:00 -3°C° 0 mm 4 mps 749 mmHg 88%
04:00 -3°C° 0 mm 4 mps 749 mmHg 88%
05:00 -2°C° 0 mm 5 mps 749 mmHg 81%
06:00 -1°C° 0 mm 5 mps 749 mmHg 74%
07:00 +1°C° 0 mm 6 mps 750 mmHg 67%
08:00 +2°C° 0 mm 6 mps 749 mmHg 58%
09:00 +4°C° 0 mm 6 mps 749 mmHg 49%
10:00 +5°C° 0 mm 7 mps 749 mmHg 41%
11:00 +6°C° 0 mm 7 mps 749 mmHg 40%
12:00 +6°C° 0 mm 7 mps 749 mmHg 39%
13:00 +6°C° 0 mm 8 mps 749 mmHg 39%
14:00 +6°C° 0 mm 7 mps 749 mmHg 42%
15:00 +7°C° 0 mm 6 mps 749 mmHg 44%
16:00 +6°C° 0 mm 5 mps 749 mmHg 47%
17:00 +5°C° 0.1 mm 4 mps 749 mmHg 57%
18:00 +4°C° 0.1 mm 4 mps 749 mmHg 68%
19:00 +2°C° 0.1 mm 3 mps 749 mmHg 78%
20:00 +2°C° 0 mm 3 mps 750 mmHg 81%
21:00 +2°C° 0 mm 2 mps 750 mmHg 84%
22:00 +2°C° 0 mm 2 mps 750 mmHg 87%
23:00 0°C° 0 mm 3 mps 750 mmHg 87%

25 April, Sunday

Time Temperature Precipitation Wind Pressure Humidity
00:00 -1°C° 0 mm 3 mps 750 mmHg 88%
01:00 -1°C° 0 mm 3 mps 750 mmHg 88%
02:00 -2°C° 0 mm 3 mps 750 mmHg 87%
03:00 -2°C° 0 mm 3 mps 750 mmHg 86%
04:00 -4°C° 0 mm 3 mps 750 mmHg 86%
05:00 -2°C° 0 mm 4 mps 751 mmHg 78%
06:00 -1°C° 0 mm 4 mps 751 mmHg 71%
07:00 0°C° 0 mm 5 mps 751 mmHg 64%
08:00 +2°C° 0 mm 5 mps 751 mmHg 57%
09:00 +3°C° 0 mm 5 mps 751 mmHg 51%
10:00 +5°C° 0 mm 5 mps 751 mmHg 45%
11:00 +4°C° 0.2 mm 6 mps 750 mmHg 47%
12:00 +5°C° 0.2 mm 6 mps 750 mmHg 48%
13:00 +5°C° 0.2 mm 6 mps 749 mmHg 50%
14:00 +5°C° 0.2 mm 6 mps 749 mmHg 52%
15:00 +5°C° 0.2 mm 6 mps 749 mmHg 54%
16:00 +5°C° 0.2 mm 6 mps 749 mmHg 56%
17:00 +3°C° 0.1 mm 5 mps 749 mmHg 63%
18:00 +3°C° 0.1 mm 4 mps 749 mmHg 69%
19:00 +2°C° 0.1 mm 3 mps 749 mmHg 75%
20:00 +1°C° 0 mm 3 mps 750 mmHg 78%
21:00 0°C° 0 mm 3 mps 750 mmHg 80%
22:00 -1°C° 0 mm 3 mps 750 mmHg 83%
23:00 -1°C° 0 mm 3 mps 750 mmHg 83%

26 April, Monday

Time Temperature Precipitation Wind Pressure Humidity
00:00 -2°C° 0 mm 3 mps 750 mmHg 82%
01:00 -2°C° 0 mm 3 mps 750 mmHg 82%
02:00 -2°C° 0 mm 3 mps 750 mmHg 83%
03:00 -2°C° 0 mm 3 mps 750 mmHg 83%
04:00 -4°C° 0 mm 3 mps 750 mmHg 83%
05:00 -1°C° 0 mm 3 mps 750 mmHg 74%
06:00 0°C° 0 mm 4 mps 750 mmHg 65%
07:00 +3°C° 0 mm 4 mps 750 mmHg 56%
08:00 +4°C° 0 mm 4 mps 750 mmHg 51%
09:00 +6°C° 0 mm 4 mps 750 mmHg 45%
10:00 +7°C° 0 mm 4 mps 750 mmHg 40%
11:00 +8°C° 0 mm 4 mps 750 mmHg 39%
12:00 +10°C° 0 mm 4 mps 749 mmHg 39%
13:00 +10°C° 0 mm 4 mps 749 mmHg 38%
14:00 +10°C° 0 mm 4 mps 749 mmHg 39%
15:00 +10°C° 0 mm 3 mps 748 mmHg 39%
16:00 +10°C° 0 mm 3 mps 748 mmHg 40%
17:00 +9°C° 0 mm 2 mps 748 mmHg 46%
18:00 +7°C° 0 mm 2 mps 748 mmHg 52%
19:00 +6°C° 0 mm 1 mps 748 mmHg 59%
20:00 +6°C° 0 mm 1 mps 748 mmHg 60%
21:00 +5°C° 0 mm 1 mps 748 mmHg 61%
22:00 +4°C° 0 mm 1 mps 748 mmHg 62%
23:00 +4°C° 0 mm 1 mps 747 mmHg 63%
Show more

We Need Your Consent

Meteoprog and our Service Providers may store and access personal data such as cookies, device identifiers or other similar technologies on your device and process such data to personalise content and ads, as well as provide social media features and to analyse the traffic.

  • Store and/or access information on your device

    Cookies, device identifiers or other information can be stored or accessed on your device for the purposes indicated above.

  • Personalised ads and content, ad and content measurement, audience insights, and products development

    Ads and content can be personalised based on a profile. More data can be added to better personalise ads and content. Ad and content performance can be measured. Insights about the audience who saw the ads and content can be derived. Such data can be used to develop or improve user’s experience, systems and software.

By clicking ‘I Agree’ you will allow the use of indicated cookies, device identifiers, web beacons or other similar technologies. Your settings can be changed in the browser on your device.

For certain purposes, legitimate interests may be relied on, rather than consent. You can read more about this in our Privacy and Cookie Policy.